Time,TemperatureF,DewpointF,PressureIn,WindDirection,WindDirectionDegrees,WindSpeedMPH,WindSpeedGustMPH,Humidity,HourlyPrecipIn,Conditions,Clouds,dailyrainin,SoftwareType,DateUTC
2013-03-26 00:04:00,50.3,41.3,29.98,SSW,203,0.0,0.0,71,0.00,,,0.00,WUHU216HW,2013-03-26 07:04:00,
2013-03-26 00:09:00,50.3,41.6,29.98,SW,225,0.0,0.0,72,0.00,,,0.00,WUHU216HW,2013-03-26 07:09:00,
2013-03-26 00:14:00,50.3,41.6,29.98,SSW,203,0.0,0.0,72,0.00,,,0.00,WUHU216HW,2013-03-26 07:14:00,
2013-03-26 00:19:00,50.3,41.6,29.98,South,180,0.0,0.0,72,0.00,,,0.00,WUHU216HW,2013-03-26 07:19:00,
2013-03-26 00:24:00,50.3,41.6,29.98,WNW,293,0.0,0.0,72,0.00,,,0.00,WUHU216HW,2013-03-26 07:24:00,
2013-03-26 00:29:00,50.3,41.6,29.98,WNW,293,0.0,0.0,72,0.00,,,0.00,WUHU216HW,2013-03-26 07:29:00,
2013-03-26 00:34:00,50.3,41.6,29.98,WNW,293,0.0,0.0,72,0.00,,,0.00,WUHU216HW,2013-03-26 07:34:00,
2013-03-26 00:39:00,50.1,41.1,29.98,SSW,203,0.0,0.0,71,0.00,,,0.00,WUHU216HW,2013-03-26 07:39:00,
2013-03-26 00:44:00,50.1,41.1,29.98,SSW,203,0.0,0.0,71,0.00,,,0.00,WUHU216HW,2013-03-26 07:44:00,
2013-03-26 00:49:00,50.1,41.1,29.98,SSW,203,0.0,0.0,71,0.00,,,0.00,WUHU216HW,2013-03-26 07:49:00,
2013-03-26 00:54:00,50.1,41.1,29.97,SSW,203,0.0,0.0,71,0.00,,,0.00,WUHU216HW,2013-03-26 07:54:00,
2013-03-26 00:59:00,50.1,41.1,29.97,SSW,203,0.0,0.0,71,0.00,,,0.00,WUHU216HW,2013-03-26 07:59:00,
2013-03-26 01:04:00,50.0,40.9,29.97,SSW,203,0.0,0.0,71,0.00,,,0.00,WUHU216HW,2013-03-26 08:04:00,
2013-03-26 01:09:00,50.0,40.9,29.97,SSW,203,0.0,0.0,71,0.00,,,0.00,WUHU216HW,2013-03-26 08:09:00,
2013-03-26 01:14:00,49.8,40.8,29.97,SSW,203,0.0,0.0,71,0.00,,,0.00,WUHU216HW,2013-03-26 08:14:00,
2013-03-26 01:20:00,49.8,40.8,29.97,SSW,203,0.0,0.0,71,0.00,,,0.00,WUHU216HW,2013-03-26 08:20:00,
2013-03-26 01:25:00,49.8,40.8,29.97,SSW,203,0.0,0.0,71,0.00,,,0.00,WUHU216HW,2013-03-26 08:25:00,
2013-03-26 01:30:00,50.0,40.9,29.97,SSW,203,0.0,0.0,71,0.00,,,0.00,WUHU216HW,2013-03-26 08:30:00,
2013-03-26 01:35:00,50.0,40.9,29.97,SSW,203,0.0,0.0,71,0.00,,,0.00,WUHU216HW,2013-03-26 08:35:00,
2013-03-26 01:40:00,50.0,40.9,29.97,SSW,203,0.0,0.0,71,0.00,,,0.00,WUHU216HW,2013-03-26 08:40:00,
2013-03-26 01:45:00,49.8,40.8,29.97,SSW,203,0.0,0.0,71,0.00,,,0.00,WUHU216HW,2013-03-26 08:45:00,
2013-03-26 01:50:00,49.8,40.8,29.97,SSW,203,0.0,0.0,71,0.00,,,0.00,WUHU216HW,2013-03-26 08:50:00,
2013-03-26 01:55:00,49.8,40.8,29.97,SSW,203,0.0,0.0,71,0.00,,,0.00,WUHU216HW,2013-03-26 08:55:00,
2013-03-26 02:00:00,49.8,40.8,29.97,SSW,203,0.0,0.0,71,0.00,,,0.00,WUHU216HW,2013-03-26 09:00:00,
2013-03-26 02:05:00,49.8,41.1,29.97,SSW,203,0.0,0.0,72,0.00,,,0.00,WUHU216HW,2013-03-26 09:05:00,
2013-03-26 02:10:00,49.8,41.1,29.97,SSW,203,0.0,0.0,72,0.00,,,0.00,WUHU216HW,2013-03-26 09:10:00,
2013-03-26 02:15:00,49.8,41.1,29.97,SSW,203,0.0,0.0,72,0.00,,,0.00,WUHU216HW,2013-03-26 09:15:00,
2013-03-26 02:20:00,49.6,40.6,29.97,SSW,203,0.0,0.0,71,0.00,,,0.00,WUHU216HW,2013-03-26 09:20:00,
2013-03-26 02:25:00,49.6,40.6,29.96,SSW,203,0.0,0.0,71,0.00,,,0.00,WUHU216HW,2013-03-26 09:25:00,
2013-03-26 02:31:00,49.6,40.6,29.96,SSW,203,0.0,0.0,71,0.00,,,0.00,WUHU216HW,2013-03-26 09:31:00,
2013-03-26 02:36:00,49.6,40.6,29.96,SSW,203,0.0,0.0,71,0.00,,,0.00,WUHU216HW,2013-03-26 09:36:00,
2013-03-26 02:41:00,49.2,40.6,29.96,SE,135,0.0,0.0,72,0.00,,,0.00,WUHU216HW,2013-03-26 09:41:00,
2013-03-26 02:46:00,49.1,40.4,29.96,SE,135,0.0,0.0,72,0.00,,,0.00,WUHU216HW,2013-03-26 09:46:00,
2013-03-26 02:51:00,49.1,40.4,29.96,SE,135,0.0,0.0,72,0.00,,,0.00,WUHU216HW,2013-03-26 09:51:00,
2013-03-26 02:56:00,48.9,40.5,29.95,SE,135,1.5,3.1,73,0.00,,,0.00,WUHU216HW,2013-03-26 09:56:00,
2013-03-26 03:01:00,48.7,40.4,29.95,ESE,113,0.0,3.1,73,0.00,,,0.00,WUHU216HW,2013-03-26 10:01:00,
2013-03-26 03:06:00,48.7,40.4,29.95,ESE,113,0.0,2.2,73,0.00,,,0.00,WUHU216HW,2013-03-26 10:06:00,
2013-03-26 03:11:00,48.7,40.7,29.95,SSE,158,0.0,0.0,74,0.00,,,0.00,WUHU216HW,2013-03-26 10:11:00,
2013-03-26 03:17:00,48.5,40.5,29.95,SE,135,0.4,0.4,74,0.00,,,0.00,WUHU216HW,2013-03-26 10:17:00,
2013-03-26 03:22:00,48.5,40.5,29.95,SE,135,1.1,1.1,74,0.00,,,0.00,WUHU216HW,2013-03-26 10:22:00,
2013-03-26 03:27:00,48.3,40.3,29.95,SE,135,0.0,1.1,74,0.00,,,0.00,WUHU216HW,2013-03-26 10:27:00,
2013-03-26 03:32:00,48.2,40.7,29.95,SE,135,1.7,2.9,75,0.00,,,0.00,WUHU216HW,2013-03-26 10:32:00,
2013-03-26 03:37:00,48.2,40.5,29.95,SE,135,0.6,2.9,75,0.00,,,0.00,WUHU216HW,2013-03-26 10:37:00,
2013-03-26 03:42:00,48.2,40.5,29.95,SE,135,1.3,1.7,75,0.00,,,0.00,WUHU216HW,2013-03-26 10:42:00,
2013-03-26 03:47:00,48.0,40.3,29.95,SE,135,0.0,1.3,75,0.00,,,0.00,WUHU216HW,2013-03-26 10:47:00,
2013-03-26 03:52:00,48.0,40.3,29.95,SE,135,2.4,2.4,75,0.00,,,0.00,WUHU216HW,2013-03-26 10:52:00,
2013-03-26 03:57:00,48.0,40.7,29.94,SE,135,5.3,5.3,76,0.00,,,0.00,WUHU216HW,2013-03-26 10:57:00,
2013-03-26 04:02:00,48.0,40.7,29.95,SSE,158,0.0,5.3,76,0.00,,,0.00,WUHU216HW,2013-03-26 11:02:00,
2013-03-26 04:07:00,48.0,40.7,29.95,SE,135,1.7,5.3,76,0.00,,,0.00,WUHU216HW,2013-03-26 11:07:00,
2013-03-26 04:12:00,47.8,40.5,29.95,South,180,0.0,2.6,76,0.00,,,0.00,WUHU216HW,2013-03-26 11:12:00,
2013-03-26 04:17:00,47.8,40.9,29.95,SSE,158,0.0,2.6,77,0.00,,,0.00,WUHU216HW,2013-03-26 11:17:00,
2013-03-26 04:22:00,47.8,40.9,29.94,SE,135,2.9,2.9,77,0.00,,,0.00,WUHU216HW,2013-03-26 11:22:00,
2013-03-26 04:27:00,47.6,40.7,29.95,SSE,158,0.4,2.9,77,0.00,,,0.00,WUHU216HW,2013-03-26 11:27:00,
2013-03-26 04:32:00,47.4,40.5,29.94,SSE,158,0.0,1.7,77,0.00,,,0.00,WUHU216HW,2013-03-26 11:32:00,
2013-03-26 04:38:00,47.4,40.5,29.94,SSE,158,0.0,0.6,77,0.00,,,0.00,WUHU216HW,2013-03-26 11:38:00,
2013-03-26 04:43:00,47.4,40.5,29.95,ESE,113,0.0,1.1,77,0.00,,,0.00,WUHU216HW,2013-03-26 11:43:00,
2013-03-26 04:48:00,47.4,40.5,29.95,SSE,158,2.9,2.9,77,0.00,,,0.00,WUHU216HW,2013-03-26 11:48:00,
2013-03-26 04:53:00,47.4,40.5,29.95,SE,135,0.8,2.9,77,0.00,,,0.00,WUHU216HW,2013-03-26 11:53:00,
2013-03-26 04:58:00,47.3,40.4,29.95,SE,135,0.6,0.8,77,0.00,,,0.00,WUHU216HW,2013-03-26 11:58:00,
2013-03-26 05:03:00,47.3,40.7,29.96,South,180,2.6,2.6,78,0.00,,,0.00,WUHU216HW,2013-03-26 12:03:00,
2013-03-26 05:08:00,47.3,40.7,29.95,SSE,158,2.9,2.9,78,0.00,,,0.00,WUHU216HW,2013-03-26 12:08:00,
2013-03-26 05:13:00,47.3,40.7,29.95,SSE,158,0.0,3.5,78,0.00,,,0.00,WUHU216HW,2013-03-26 12:13:00,
2013-03-26 05:18:00,47.3,40.6,29.95,SE,135,0.0,3.5,78,0.00,,,0.00,WUHU216HW,2013-03-26 12:18:00,
2013-03-26 05:23:00,47.3,40.7,29.95,ESE,113,0.0,1.1,78,0.00,,,0.00,WUHU216HW,2013-03-26 12:23:00,
2013-03-26 05:28:00,47.3,40.7,29.95,SE,135,0.0,1.1,78,0.00,,,0.00,WUHU216HW,2013-03-26 12:28:00,
2013-03-26 05:33:00,47.1,40.6,29.95,SE,135,0.0,0.8,78,0.00,,,0.00,WUHU216HW,2013-03-26 12:33:00,
2013-03-26 05:38:00,47.3,41.1,29.96,SE,135,0.6,0.8,79,0.00,,,0.00,WUHU216HW,2013-03-26 12:38:00,
2013-03-26 05:43:00,47.3,41.1,29.95,ESE,113,0.0,0.8,79,0.00,,,0.00,WUHU216HW,2013-03-26 12:43:00,
2013-03-26 05:48:00,47.3,41.1,29.95,SE,135,0.0,1.3,79,0.00,,,0.00,WUHU216HW,2013-03-26 12:48:00,
2013-03-26 05:53:00,47.3,41.1,29.96,SE,135,2.0,2.0,79,0.00,,,0.00,WUHU216HW,2013-03-26 12:53:00,
2013-03-26 05:59:00,47.3,41.1,29.96,SE,135,0.0,2.0,79,0.00,,,0.00,WUHU216HW,2013-03-26 12:59:00,
2013-03-26 06:04:00,47.3,41.1,29.96,SE,135,6.4,6.4,79,0.00,,,0.00,WUHU216HW,2013-03-26 13:04:00,
2013-03-26 06:09:00,47.1,40.6,29.95,SE,135,1.1,6.4,78,0.00,,,0.00,WUHU216HW,2013-03-26 13:09:00,
2013-03-26 06:14:00,47.1,40.9,29.96,SSE,158,1.7,2.4,79,0.00,,,0.00,WUHU216HW,2013-03-26 13:14:00,
2013-03-26 06:19:00,47.1,40.9,29.96,SSE,158,0.0,2.6,79,0.00,,,0.00,WUHU216HW,2013-03-26 13:19:00,
2013-03-26 06:24:00,47.1,40.9,29.96,SE,135,0.0,2.6,79,0.00,,,0.00,WUHU216HW,2013-03-26 13:24:00,
2013-03-26 06:29:00,47.1,40.9,29.96,SE,135,2.4,2.4,79,0.00,,,0.00,WUHU216HW,2013-03-26 13:29:00,
2013-03-26 06:34:00,47.1,40.9,29.96,SE,135,1.7,2.4,79,0.00,,,0.00,WUHU216HW,2013-03-26 13:34:00,
2013-03-26 06:39:00,47.1,40.9,29.96,SE,135,2.9,2.9,79,0.00,,,0.00,WUHU216HW,2013-03-26 13:39:00,
2013-03-26 06:44:00,47.1,40.9,29.96,SE,135,0.0,2.9,79,0.00,,,0.00,WUHU216HW,2013-03-26 13:44:00,
2013-03-26 06:49:00,47.1,40.9,29.96,SSE,158,0.6,2.2,79,0.00,,,0.00,WUHU216HW,2013-03-26 13:49:00,
2013-03-26 06:54:00,47.1,40.9,29.96,SSE,158,0.0,0.6,79,0.00,,,0.00,WUHU216HW,2013-03-26 13:54:00,
2013-03-26 06:59:00,47.1,40.9,29.96,SSE,158,0.0,0.6,79,0.00,,,0.00,WUHU216HW,2013-03-26 13:59:00,
2013-03-26 07:04:00,47.1,40.9,29.96,SSE,158,0.0,0.0,79,0.00,,,0.00,WUHU216HW,2013-03-26 14:04:00,
2013-03-26 07:09:00,47.1,40.9,29.97,SSE,158,0.0,0.0,79,0.00,,,0.00,WUHU216HW,2013-03-26 14:09:00,
2013-03-26 07:15:00,47.1,40.9,29.96,SSE,158,0.0,0.0,79,0.00,,,0.00,WUHU216HW,2013-03-26 14:15:00,
2013-03-26 07:20:00,47.3,40.7,29.97,SSE,158,0.0,0.0,78,0.00,,,0.00,WUHU216HW,2013-03-26 14:20:00,
2013-03-26 07:25:00,47.1,40.6,29.97,SSE,158,0.0,0.0,78,0.00,,,0.00,WUHU216HW,2013-03-26 14:25:00,
2013-03-26 07:30:00,47.1,40.6,29.98,SSE,158,0.0,0.0,78,0.00,,,0.00,WUHU216HW,2013-03-26 14:30:00,
2013-03-26 07:35:00,47.3,41.1,29.97,SSE,158,0.0,0.0,79,0.00,,,0.00,WUHU216HW,2013-03-26 14:35:00,
2013-03-26 07:40:00,47.3,41.1,29.97,SSE,158,0.0,0.0,79,0.00,,,0.00,WUHU216HW,2013-03-26 14:40:00,
2013-03-26 07:45:00,47.3,41.1,29.97,SSE,158,0.0,0.0,79,0.00,,,0.00,WUHU216HW,2013-03-26 14:45:00,
2013-03-26 07:50:00,47.1,40.6,29.98,SSE,158,0.0,0.0,78,0.00,,,0.00,WUHU216HW,2013-03-26 14:50:00,
2013-03-26 07:55:00,47.1,40.6,29.98,SSE,158,0.0,0.0,78,0.00,,,0.00,WUHU216HW,2013-03-26 14:55:00,
2013-03-26 08:00:00,47.1,40.6,29.98,SSE,158,0.0,0.0,78,0.00,,,0.00,WUHU216HW,2013-03-26 15:00:00,
2013-03-26 08:05:00,47.3,40.7,29.98,SSE,158,0.0,0.0,78,0.00,,,0.00,WUHU216HW,2013-03-26 15:05:00,
2013-03-26 08:10:00,47.3,40.7,29.98,SSE,158,0.0,0.0,78,0.00,,,0.00,WUHU216HW,2013-03-26 15:10:00,
2013-03-26 08:15:00,47.4,40.9,29.97,SSE,158,0.0,0.0,78,0.00,,,0.00,WUHU216HW,2013-03-26 15:15:00,
2013-03-26 08:20:00,47.6,41.0,29.98,SSE,158,0.0,0.0,78,0.00,,,0.00,WUHU216HW,2013-03-26 15:20:00,
2013-03-26 08:25:00,47.6,41.0,29.98,SSE,158,0.0,0.0,78,0.00,,,0.00,WUHU216HW,2013-03-26 15:25:00,
2013-03-26 08:31:00,47.8,40.9,29.98,SSE,158,0.0,0.0,77,0.00,,,0.00,WUHU216HW,2013-03-26 15:31:00,
2013-03-26 08:36:00,47.8,40.9,29.98,SSE,158,0.0,0.0,77,0.00,,,0.00,WUHU216HW,2013-03-26 15:36:00,
2013-03-26 08:41:00,48.0,41.0,29.97,SSE,158,0.0,0.0,77,0.00,,,0.00,WUHU216HW,2013-03-26 15:41:00,
2013-03-26 08:46:00,48.0,41.0,29.97,SSE,158,0.0,0.0,77,0.00,,,0.00,WUHU216HW,2013-03-26 15:46:00,
2013-03-26 08:51:00,48.2,40.8,29.98,South,180,0.0,0.0,76,0.00,,,0.00,WUHU216HW,2013-03-26 15:51:00,
2013-03-26 08:56:00,48.3,41.0,29.98,South,180,0.0,0.0,76,0.00,,,0.00,WUHU216HW,2013-03-26 15:56:00,
2013-03-26 09:02:00,48.3,41.0,29.98,South,180,0.0,0.0,76,0.00,,,0.00,WUHU216HW,2013-03-26 16:02:00,
2013-03-26 09:07:00,48.7,41.0,29.98,South,180,0.0,0.0,75,0.00,,,0.00,WUHU216HW,2013-03-26 16:07:00,
2013-03-26 09:12:00,48.7,41.0,29.97,South,180,0.0,0.0,75,0.00,,,0.00,WUHU216HW,2013-03-26 16:12:00,
2013-03-26 09:17:00,49.1,41.4,29.98,South,180,0.0,0.0,75,0.00,,,0.00,WUHU216HW,2013-03-26 16:17:00,
2013-03-26 09:22:00,49.2,41.8,29.98,South,180,0.0,0.0,75,0.00,,,0.00,WUHU216HW,2013-03-26 16:22:00,
2013-03-26 09:27:00,49.6,41.6,29.98,SSW,203,0.0,1.7,74,0.00,,,0.00,WUHU216HW,2013-03-26 16:27:00,
2013-03-26 09:32:00,49.8,41.8,29.98,SSW,203,0.0,1.7,74,0.00,,,0.00,WUHU216HW,2013-03-26 16:32:00,
2013-03-26 09:37:00,50.1,42.1,29.98,SSW,203,0.0,0.0,74,0.00,,,0.00,WUHU216HW,2013-03-26 16:37:00,
2013-03-26 09:42:00,50.3,42.3,29.98,SSW,203,0.0,0.0,74,0.00,,,0.00,WUHU216HW,2013-03-26 16:42:00,
2013-03-26 09:47:00,50.7,42.3,29.98,SSW,203,0.0,0.0,73,0.00,,,0.00,WUHU216HW,2013-03-26 16:47:00,
2013-03-26 09:52:00,50.7,42.3,29.98,SSW,203,0.0,0.0,73,0.00,,,0.00,WUHU216HW,2013-03-26 16:52:00,
2013-03-26 09:57:00,51.0,42.4,29.98,WSW,248,0.0,0.0,72,0.00,,,0.00,WUHU216HW,2013-03-26 16:57:00,
2013-03-26 10:02:00,51.4,42.7,29.98,SSW,203,3.1,3.1,72,0.00,,,0.00,WUHU216HW,2013-03-26 17:02:00,
2013-03-26 10:07:00,51.8,43.1,29.98,North,0,0.0,5.1,72,0.00,,,0.00,WUHU216HW,2013-03-26 17:07:00,
2013-03-26 10:12:00,51.9,42.9,29.98,SW,225,0.0,5.1,71,0.00,,,0.00,WUHU216HW,2013-03-26 17:12:00,
2013-03-26 10:18:00,52.3,43.2,29.98,West,270,0.0,3.8,71,0.00,,,0.00,WUHU216HW,2013-03-26 17:18:00,
2013-03-26 10:23:00,52.8,43.4,29.98,WSW,248,0.0,0.8,70,0.00,,,0.00,WUHU216HW,2013-03-26 17:23:00,
2013-03-26 10:28:00,53.2,43.7,29.98,SSW,203,1.7,1.7,70,0.00,,,0.00,WUHU216HW,2013-03-26 17:28:00,
2013-03-26 10:33:00,53.4,43.4,29.98,SW,225,0.0,2.4,69,0.00,,,0.00,WUHU216HW,2013-03-26 17:33:00,
2013-03-26 10:38:00,53.7,43.4,29.98,South,180,0.0,2.4,69,0.00,,,0.00,WUHU216HW,2013-03-26 17:38:00,
2013-03-26 10:43:00,54.1,43.7,29.98,South,180,1.7,1.7,68,0.00,,,0.00,WUHU216HW,2013-03-26 17:43:00,
2013-03-26 10:48:00,54.1,43.9,29.98,SW,225,0.0,2.0,68,0.00,,,0.00,WUHU216HW,2013-03-26 17:48:00,
2013-03-26 10:53:00,54.6,43.9,29.98,SW,225,0.0,4.4,67,0.00,,,0.00,WUHU216HW,2013-03-26 17:53:00,
2013-03-26 10:58:00,54.8,44.0,29.98,SSW,203,0.0,4.4,67,0.00,,,0.00,WUHU216HW,2013-03-26 17:58:00,
2013-03-26 11:03:00,55.2,44.4,29.98,SSW,203,3.5,3.5,67,0.00,,,0.00,WUHU216HW,2013-03-26 18:03:00,
2013-03-26 11:08:00,55.5,44.3,29.98,SW,225,0.0,4.6,66,0.00,,,0.00,WUHU216HW,2013-03-26 18:08:00,
2013-03-26 11:13:00,55.7,44.5,29.98,SSW,203,1.1,4.6,66,0.00,,,0.00,WUHU216HW,2013-03-26 18:13:00,
2013-03-26 11:18:00,56.1,44.8,29.98,SSE,158,4.4,4.4,66,0.00,,,0.00,WUHU216HW,2013-03-26 18:18:00,
2013-03-26 11:23:00,56.4,45.2,29.98,SSW,203,4.6,8.2,66,0.00,,,0.00,WUHU216HW,2013-03-26 18:23:00,
2013-03-26 11:28:00,56.6,44.9,29.98,SW,225,3.1,8.2,65,0.00,,,0.00,WUHU216HW,2013-03-26 18:28:00,
2013-03-26 11:33:00,57.0,45.3,29.98,SW,225,2.2,4.6,65,0.00,,,0.00,WUHU216HW,2013-03-26 18:33:00,
2013-03-26 11:39:00,57.2,45.5,29.98,SW,225,6.0,6.0,65,0.00,,,0.00,WUHU216HW,2013-03-26 18:39:00,
2013-03-26 11:44:00,57.3,45.2,29.98,SW,225,1.5,6.7,64,0.00,,,0.00,WUHU216HW,2013-03-26 18:44:00,
2013-03-26 11:49:00,57.5,45.4,29.98,North,0,0.0,6.7,64,0.00,,,0.00,WUHU216HW,2013-03-26 18:49:00,
2013-03-26 11:54:00,57.7,45.6,29.98,SW,225,4.4,4.4,64,0.00,,,0.00,WUHU216HW,2013-03-26 18:54:00,
2013-03-26 11:59:00,57.9,45.7,29.99,SW,225,0.0,4.4,64,0.00,,,0.00,WUHU216HW,2013-03-26 18:59:00,
2013-03-26 12:04:00,57.9,45.7,29.99,WSW,248,0.0,5.5,64,0.00,,,0.00,WUHU216HW,2013-03-26 19:04:00,
2013-03-26 12:09:00,58.1,45.9,29.99,WSW,248,0.0,5.5,64,0.00,,,0.00,WUHU216HW,2013-03-26 19:09:00,
2013-03-26 12:14:00,58.2,46.1,29.99,SW,225,5.8,5.8,64,0.00,,,0.00,WUHU216HW,2013-03-26 19:14:00,
2013-03-26 12:19:00,58.2,46.1,29.99,SSW,203,4.4,5.8,64,0.00,,,0.00,WUHU216HW,2013-03-26 19:19:00,
2013-03-26 12:24:00,58.2,46.1,29.99,SSW,203,6.0,6.0,64,0.00,,,0.00,WUHU216HW,2013-03-26 19:24:00,
2013-03-26 12:29:00,58.2,46.1,29.99,SW,225,0.8,6.0,64,0.00,,,0.00,WUHU216HW,2013-03-26 19:29:00,
2013-03-26 12:34:00,58.2,46.1,29.98,SSW,203,0.0,2.2,64,0.00,,,0.00,WUHU216HW,2013-03-26 19:34:00,
2013-03-26 12:39:00,58.8,46.6,29.98,South,180,2.4,4.2,64,0.00,,,0.00,WUHU216HW,2013-03-26 19:39:00,
2013-03-26 12:44:00,58.8,46.2,29.98,SE,135,4.6,4.6,63,0.00,,,0.00,WUHU216HW,2013-03-26 19:44:00,
2013-03-26 12:49:00,58.8,46.2,29.98,SW,225,1.7,4.6,63,0.00,,,0.00,WUHU216HW,2013-03-26 19:49:00,
2013-03-26 12:54:00,58.8,46.2,29.99,WSW,248,0.0,4.6,63,0.00,,,0.00,WUHU216HW,2013-03-26 19:54:00,
2013-03-26 12:59:00,59.1,46.1,29.99,SSW,203,2.0,6.0,62,0.00,,,0.00,WUHU216HW,2013-03-26 19:59:00,
2013-03-26 13:04:00,59.1,46.1,29.99,West,270,6.2,6.2,62,0.00,,,0.00,WUHU216HW,2013-03-26 20:04:00,
2013-03-26 13:09:00,59.3,46.3,29.99,SW,225,0.0,8.5,62,0.00,,,0.00,WUHU216HW,2013-03-26 20:09:00,
2013-03-26 13:14:00,59.1,46.1,29.98,SSW,203,0.6,8.5,62,0.00,,,0.00,WUHU216HW,2013-03-26 20:14:00,
2013-03-26 13:19:00,59.1,46.1,29.98,SSW,203,5.1,5.1,62,0.00,,,0.00,WUHU216HW,2013-03-26 20:19:00,
2013-03-26 13:25:00,59.1,46.1,29.98,SSW,203,6.7,6.7,62,0.00,,,0.00,WUHU216HW,2013-03-26 20:25:00,
2013-03-26 13:30:00,59.1,46.1,29.98,South,180,0.0,6.7,62,0.00,,,0.00,WUHU216HW,2013-03-26 20:30:00,
2013-03-26 13:35:00,59.3,46.3,29.98,West,270,0.0,4.9,62,0.00,,,0.00,WUHU216HW,2013-03-26 20:35:00,
2013-03-26 13:40:00,59.7,46.6,29.98,WSW,248,4.4,9.6,62,0.00,,,0.00,WUHU216HW,2013-03-26 20:40:00,
2013-03-26 13:45:00,59.7,46.6,29.98,SSW,203,1.3,9.6,62,0.00,,,0.00,WUHU216HW,2013-03-26 20:45:00,
2013-03-26 13:50:00,60.2,46.6,29.98,South,180,4.2,6.9,61,0.00,,,0.00,WUHU216HW,2013-03-26 20:50:00,
2013-03-26 13:55:00,60.2,46.8,29.98,SW,225,5.5,5.5,61,0.00,,,0.00,WUHU216HW,2013-03-26 20:55:00,
2013-03-26 14:00:00,60.4,46.9,29.98,SE,135,4.6,5.5,61,0.00,,,0.00,WUHU216HW,2013-03-26 21:00:00,
2013-03-26 14:05:00,60.4,47.4,29.98,WSW,248,0.0,10.0,62,0.00,,,0.00,WUHU216HW,2013-03-26 21:05:00,
2013-03-26 14:10:00,60.4,47.4,29.98,SSE,158,4.2,10.0,62,0.00,,,0.00,WUHU216HW,2013-03-26 21:10:00,
2013-03-26 14:15:00,60.2,47.2,29.97,West,270,0.0,6.4,62,0.00,,,0.00,WUHU216HW,2013-03-26 21:15:00,
2013-03-26 14:20:00,60.0,47.4,29.97,South,180,4.4,6.4,63,0.00,,,0.00,WUHU216HW,2013-03-26 21:20:00,
2013-03-26 14:25:00,60.4,47.8,29.97,WSW,248,5.8,6.9,63,0.00,,,0.00,WUHU216HW,2013-03-26 21:25:00,
2013-03-26 14:30:00,60.4,47.4,29.97,West,270,0.0,6.9,62,0.00,,,0.00,WUHU216HW,2013-03-26 21:30:00,
2013-03-26 14:35:00,60.6,47.5,29.97,SSW,203,6.9,6.9,62,0.00,,,0.00,WUHU216HW,2013-03-26 21:35:00,
2013-03-26 14:40:00,60.6,47.5,29.97,SW,225,2.4,6.9,62,0.00,,,0.00,WUHU216HW,2013-03-26 21:40:00,
2013-03-26 14:45:00,60.9,47.9,29.97,WSW,248,2.9,6.9,62,0.00,,,0.00,WUHU216HW,2013-03-26 21:45:00,
2013-03-26 14:50:00,60.4,47.4,29.97,SSE,158,1.3,3.5,62,0.00,,,0.00,WUHU216HW,2013-03-26 21:50:00,
2013-03-26 14:55:00,60.0,47.0,29.96,SSE,158,3.8,5.5,62,0.00,,,0.00,WUHU216HW,2013-03-26 21:55:00,
2013-03-26 15:00:00,59.9,47.2,29.96,SE,135,1.1,5.5,63,0.00,,,0.00,WUHU216HW,2013-03-26 22:00:00,
2013-03-26 15:06:00,60.0,47.4,29.96,SSE,158,6.9,6.9,63,0.00,,,0.00,WUHU216HW,2013-03-26 22:06:00,
2013-03-26 15:11:00,60.0,47.4,29.96,SE,135,5.5,6.9,63,0.00,,,0.00,WUHU216HW,2013-03-26 22:11:00,
2013-03-26 15:16:00,60.0,47.4,29.96,South,180,6.7,6.7,63,0.00,,,0.00,WUHU216HW,2013-03-26 22:16:00,
2013-03-26 15:21:00,60.4,47.8,29.96,SSW,203,2.4,6.7,63,0.00,,,0.00,WUHU216HW,2013-03-26 22:21:00,
2013-03-26 15:26:00,60.4,47.8,29.96,South,180,3.3,6.7,63,0.00,,,0.00,WUHU216HW,2013-03-26 22:26:00,
2013-03-26 15:32:00,60.6,48.0,29.96,SW,225,13.4,13.4,63,0.00,,,0.00,WUHU216HW,2013-03-26 22:32:00,
2013-03-26 15:37:00,60.4,47.8,29.96,SE,135,7.6,13.4,63,0.00,,,0.00,WUHU216HW,2013-03-26 22:37:00,
2013-03-26 15:42:00,60.4,47.8,29.96,SE,135,8.0,13.4,63,0.00,,,0.00,WUHU216HW,2013-03-26 22:42:00,
2013-03-26 15:47:00,60.4,47.8,29.96,SE,135,7.8,8.0,63,0.00,,,0.00,WUHU216HW,2013-03-26 22:47:00,
2013-03-26 15:52:00,60.4,47.8,29.96,SE,135,5.1,7.8,63,0.00,,,0.00,WUHU216HW,2013-03-26 22:52:00,
2013-03-26 15:57:00,60.6,48.0,29.95,ESE,113,4.2,5.1,63,0.00,,,0.00,WUHU216HW,2013-03-26 22:57:00,
2013-03-26 16:02:00,60.6,48.0,29.95,SW,225,4.9,4.9,63,0.00,,,0.00,WUHU216HW,2013-03-26 23:02:00,
2013-03-26 16:07:00,60.4,47.8,29.95,SE,135,3.3,6.9,63,0.00,,,0.00,WUHU216HW,2013-03-26 23:07:00,
2013-03-26 16:12:00,60.4,47.8,29.95,SSW,203,7.1,7.1,63,0.00,,,0.00,WUHU216HW,2013-03-26 23:12:00,
2013-03-26 16:17:00,60.4,47.8,29.95,SSE,158,2.2,7.1,63,0.00,,,0.00,WUHU216HW,2013-03-26 23:17:00,
2013-03-26 16:22:00,60.0,47.4,29.95,SE,135,7.1,7.6,63,0.00,,,0.00,WUHU216HW,2013-03-26 23:22:00,
2013-03-26 16:27:00,60.0,47.4,29.95,SSE,158,4.2,7.6,63,0.00,,,0.00,WUHU216HW,2013-03-26 23:27:00,
2013-03-26 16:32:00,60.0,47.4,29.95,East,90,4.0,7.1,63,0.00,,,0.00,WUHU216HW,2013-03-26 23:32:00,
2013-03-26 16:38:00,60.0,47.8,29.95,SE,135,4.4,5.8,64,0.00,,,0.00,WUHU216HW,2013-03-26 23:38:00,
2013-03-26 16:42:00,60.2,47.6,29.94,SE,135,7.3,7.3,63,0.00,,,0.00,WUHU216HW,2013-03-26 23:42:00,
2013-03-26 16:47:00,60.4,47.8,29.94,WSW,248,10.0,10.0,63,0.00,,,0.00,WUHU216HW,2013-03-26 23:47:00,
2013-03-26 16:53:00,60.0,47.4,29.95,SE,135,8.2,10.0,63,0.00,,,0.00,WUHU216HW,2013-03-26 23:53:00,
2013-03-26 16:58:00,59.9,47.6,29.94,South,180,4.9,9.1,64,0.00,,,0.00,WUHU216HW,2013-03-26 23:58:00,
2013-03-26 17:03:00,59.9,47.6,29.94,West,270,2.6,8.2,64,0.00,,,0.00,WUHU216HW,2013-03-27 00:03:00,
2013-03-26 17:08:00,59.7,47.5,29.94,SW,225,7.1,7.1,64,0.00,,,0.00,WUHU216HW,2013-03-27 00:08:00,
2013-03-26 17:13:00,59.5,47.3,29.94,West,270,2.2,7.1,64,0.00,,,0.00,WUHU216HW,2013-03-27 00:13:00,
2013-03-26 17:18:00,59.5,47.3,29.94,SSE,158,0.0,7.1,64,0.00,,,0.00,WUHU216HW,2013-03-27 00:18:00,
2013-03-26 17:23:00,59.5,47.3,29.94,SSE,158,6.0,6.0,64,0.00,,,0.00,WUHU216HW,2013-03-27 00:23:00,
2013-03-26 17:28:00,59.5,46.9,29.94,SE,135,4.4,6.0,63,0.00,,,0.00,WUHU216HW,2013-03-27 00:28:00,
2013-03-26 17:33:00,59.5,47.3,29.94,SE,135,5.3,5.3,64,0.00,,,0.00,WUHU216HW,2013-03-27 00:33:00,
2013-03-26 17:38:00,59.3,46.7,29.94,SE,135,0.0,5.3,63,0.00,,,0.00,WUHU216HW,2013-03-27 00:38:00,
2013-03-26 17:43:00,59.0,46.3,29.93,West,270,4.9,5.3,63,0.00,,,0.00,WUHU216HW,2013-03-27 00:43:00,
2013-03-26 17:48:00,58.8,46.6,29.93,SE,135,2.9,4.9,64,0.00,,,0.00,WUHU216HW,2013-03-27 00:48:00,
2013-03-26 17:53:00,58.6,46.4,29.93,SE,135,3.1,4.0,64,0.00,,,0.00,WUHU216HW,2013-03-27 00:53:00,
2013-03-26 17:58:00,58.6,46.4,29.93,WSW,248,4.9,4.9,64,0.00,,,0.00,WUHU216HW,2013-03-27 00:58:00,
2013-03-26 18:03:00,58.2,46.1,29.93,SSE,158,5.3,5.3,64,0.00,,,0.00,WUHU216HW,2013-03-27 01:03:00,
2013-03-26 18:08:00,58.2,46.1,29.93,SW,225,3.5,6.0,64,0.00,,,0.00,WUHU216HW,2013-03-27 01:08:00,
2013-03-26 18:14:00,57.9,45.7,29.93,South,180,3.3,6.0,64,0.00,,,0.00,WUHU216HW,2013-03-27 01:14:00,
2013-03-26 18:19:00,57.5,45.4,29.93,South,180,5.8,5.8,64,0.00,,,0.00,WUHU216HW,2013-03-27 01:19:00,
2013-03-26 18:24:00,57.3,45.2,29.93,SSE,158,5.5,5.8,64,0.00,,,0.00,WUHU216HW,2013-03-27 01:24:00,
2013-03-26 18:29:00,56.8,45.1,29.93,ESE,113,3.5,8.9,65,0.00,,,0.00,WUHU216HW,2013-03-27 01:29:00,
2013-03-26 18:34:00,56.4,45.2,29.94,SSE,158,2.0,8.9,66,0.00,,,0.00,WUHU216HW,2013-03-27 01:34:00,
2013-03-26 18:39:00,56.3,45.0,29.94,SE,135,3.5,5.3,66,0.00,,,0.00,WUHU216HW,2013-03-27 01:39:00,
2013-03-26 18:44:00,56.1,44.8,29.94,SE,135,4.9,6.4,66,0.00,,,0.00,WUHU216HW,2013-03-27 01:44:00,
2013-03-26 18:49:00,56.1,44.8,29.94,ESE,113,9.6,9.6,66,0.00,,,0.00,WUHU216HW,2013-03-27 01:49:00,
2013-03-26 18:54:00,55.7,44.9,29.94,SE,135,4.6,9.6,67,0.00,,,0.00,WUHU216HW,2013-03-27 01:54:00,
2013-03-26 18:59:00,55.5,44.7,29.94,South,180,2.2,6.2,67,0.00,,,0.00,WUHU216HW,2013-03-27 01:59:00,
2013-03-26 19:04:00,55.5,45.1,29.94,SE,135,3.8,5.5,68,0.00,,,0.00,WUHU216HW,2013-03-27 02:04:00,
2013-03-26 19:09:00,55.2,44.8,29.94,SSE,158,2.9,5.5,68,0.00,,,0.00,WUHU216HW,2013-03-27 02:09:00,
2013-03-26 19:14:00,55.2,44.8,29.94,SE,135,6.2,6.2,68,0.00,,,0.00,WUHU216HW,2013-03-27 02:14:00,
2013-03-26 19:19:00,55.0,45.0,29.94,SSE,158,6.0,6.2,69,0.00,,,0.00,WUHU216HW,2013-03-27 02:19:00,
2013-03-26 19:24:00,54.8,44.9,29.94,SE,135,2.4,6.4,69,0.00,,,0.00,WUHU216HW,2013-03-27 02:24:00,
2013-03-26 19:30:00,54.8,44.9,29.94,SE,135,3.5,6.4,69,0.00,,,0.00,WUHU216HW,2013-03-27 02:30:00,
2013-03-26 19:35:00,54.6,44.7,29.94,SSE,158,4.0,5.1,69,0.00,,,0.00,WUHU216HW,2013-03-27 02:35:00,
2013-03-26 19:40:00,54.6,44.7,29.94,South,180,2.9,5.5,69,0.00,,,0.00,WUHU216HW,2013-03-27 02:40:00,
2013-03-26 19:45:00,54.5,44.5,29.94,SSE,158,4.0,5.5,69,0.00,,,0.00,WUHU216HW,2013-03-27 02:45:00,
2013-03-26 19:50:00,54.3,44.3,29.94,SE,135,2.6,4.2,69,0.00,,,0.00,WUHU216HW,2013-03-27 02:50:00,
2013-03-26 19:55:00,54.1,44.6,29.94,ESE,113,6.9,6.9,70,0.00,,,0.00,WUHU216HW,2013-03-27 02:55:00,
2013-03-26 20:00:00,54.1,44.6,29.94,SE,135,2.6,6.9,70,0.00,,,0.00,WUHU216HW,2013-03-27 03:00:00,
2013-03-26 20:05:00,53.9,44.4,29.95,SSE,158,3.8,7.3,70,0.00,,,0.00,WUHU216HW,2013-03-27 03:05:00,
2013-03-26 20:10:00,53.7,44.5,29.95,SSE,158,4.6,7.3,71,0.00,,,0.00,WUHU216HW,2013-03-27 03:10:00,
2013-03-26 20:15:00,53.7,44.5,29.95,ESE,113,3.3,4.6,71,0.00,,,0.00,WUHU216HW,2013-03-27 03:15:00,
2013-03-26 20:20:00,53.7,44.5,29.95,SE,135,5.1,5.1,71,0.00,,,0.00,WUHU216HW,2013-03-27 03:20:00,
2013-03-26 20:25:00,53.7,44.5,29.95,SE,135,1.5,5.1,71,0.00,,,0.00,WUHU216HW,2013-03-27 03:25:00,
2013-03-26 20:30:00,53.7,44.5,29.95,SE,135,1.1,5.1,71,0.00,,,0.00,WUHU216HW,2013-03-27 03:30:00,
2013-03-26 20:35:00,53.7,44.5,29.95,SE,135,3.8,3.8,71,0.00,,,0.00,WUHU216HW,2013-03-27 03:35:00,
2013-03-26 20:40:00,53.7,44.5,29.95,SSE,158,3.5,5.1,71,0.00,,,0.00,WUHU216HW,2013-03-27 03:40:00,
2013-03-26 20:45:00,53.6,44.4,29.95,SE,135,3.3,5.1,71,0.00,,,0.00,WUHU216HW,2013-03-27 03:45:00,
2013-03-26 20:50:00,53.4,44.2,29.95,SSE,158,4.0,4.4,71,0.00,,,0.00,WUHU216HW,2013-03-27 03:50:00,
2013-03-26 20:55:00,53.4,44.2,29.95,ESE,113,5.1,5.1,71,0.00,,,0.00,WUHU216HW,2013-03-27 03:55:00,
2013-03-26 21:00:00,53.4,44.2,29.95,SE,135,1.3,5.1,71,0.00,,,0.00,WUHU216HW,2013-03-27 04:00:00,
2013-03-26 21:05:00,53.2,44.0,29.95,SE,135,1.1,4.4,71,0.00,,,0.00,WUHU216HW,2013-03-27 04:05:00,
2013-03-26 21:10:00,52.8,44.1,29.96,SSE,158,3.3,6.0,72,0.00,,,0.00,WUHU216HW,2013-03-27 04:10:00,
2013-03-26 21:15:00,52.8,44.1,29.96,ESE,113,4.2,6.0,72,0.00,,,0.00,WUHU216HW,2013-03-27 04:15:00,
2013-03-26 21:21:00,52.8,44.4,29.96,SSE,158,3.5,4.2,73,0.00,,,0.00,WUHU216HW,2013-03-27 04:21:00,
2013-03-26 21:26:00,52.7,44.2,29.96,SSE,158,1.5,3.5,73,0.00,,,0.00,WUHU216HW,2013-03-27 04:26:00,
2013-03-26 21:31:00,52.5,44.1,29.96,ESE,113,0.0,2.0,73,0.00,,,0.00,WUHU216HW,2013-03-27 04:31:00,
2013-03-26 21:36:00,52.5,44.1,29.96,SE,135,4.0,4.0,73,0.00,,,0.00,WUHU216HW,2013-03-27 04:36:00,
2013-03-26 21:41:00,52.5,44.4,29.96,SE,135,1.3,4.0,74,0.00,,,0.00,WUHU216HW,2013-03-27 04:41:00,
2013-03-26 21:46:00,52.3,44.3,29.96,ESE,113,0.0,1.7,74,0.00,,,0.00,WUHU216HW,2013-03-27 04:46:00,
2013-03-26 21:51:00,52.3,44.3,29.96,SE,135,2.2,2.2,74,0.00,,,0.00,WUHU216HW,2013-03-27 04:51:00,
2013-03-26 21:57:00,52.3,44.3,29.96,SE,135,0.0,2.2,74,0.00,,,0.00,WUHU216HW,2013-03-27 04:57:00,
2013-03-26 22:02:00,52.3,44.3,29.96,ESE,113,0.0,0.0,74,0.00,,,0.00,WUHU216HW,2013-03-27 05:02:00,
2013-03-26 22:07:00,52.1,44.4,29.96,East,90,0.8,0.8,75,0.00,,,0.00,WUHU216HW,2013-03-27 05:07:00,
2013-03-26 22:12:00,51.9,44.3,29.96,East,90,0.0,0.8,75,0.00,,,0.00,WUHU216HW,2013-03-27 05:12:00,
2013-03-26 22:17:00,51.9,44.3,29.96,SE,135,0.0,0.8,75,0.00,,,0.00,WUHU216HW,2013-03-27 05:17:00,
2013-03-26 22:22:00,51.9,44.3,29.96,ESE,113,2.2,2.2,75,0.00,,,0.00,WUHU216HW,2013-03-27 05:22:00,
2013-03-26 22:27:00,51.8,44.1,29.96,SE,135,0.0,2.2,75,0.00,,,0.00,WUHU216HW,2013-03-27 05:27:00,
2013-03-26 22:32:00,51.6,43.9,29.96,ENE,68,1.1,2.2,75,0.00,,,0.00,WUHU216HW,2013-03-27 05:32:00,
2013-03-26 22:37:00,51.6,44.3,29.96,ESE,113,0.0,1.1,76,0.00,,,0.00,WUHU216HW,2013-03-27 05:37:00,
2013-03-26 22:42:00,51.6,44.3,29.95,ESE,113,0.0,0.8,76,0.00,,,0.00,WUHU216HW,2013-03-27 05:42:00,
2013-03-26 22:47:00,51.6,44.3,29.96,ESE,113,0.0,0.0,76,0.00,,,0.00,WUHU216HW,2013-03-27 05:47:00,
2013-03-26 22:52:00,51.6,44.3,29.96,ESE,113,0.0,0.0,76,0.00,,,0.00,WUHU216HW,2013-03-27 05:52:00,
2013-03-26 22:57:00,51.6,44.3,29.95,ESE,113,0.0,0.0,76,0.00,,,0.00,WUHU216HW,2013-03-27 05:57:00,
2013-03-26 23:03:00,51.6,44.3,29.96,SE,135,0.0,0.0,76,0.00,,,0.00,WUHU216HW,2013-03-27 06:03:00,
2013-03-26 23:08:00,51.6,43.9,29.96,SE,135,0.0,0.0,75,0.00,,,0.00,WUHU216HW,2013-03-27 06:08:00,
2013-03-26 23:13:00,51.6,43.9,29.96,SE,135,0.0,0.6,75,0.00,,,0.00,WUHU216HW,2013-03-27 06:13:00,
2013-03-26 23:18:00,51.4,43.7,29.96,SSE,158,0.0,1.7,75,0.00,,,0.00,WUHU216HW,2013-03-27 06:18:00,
2013-03-26 23:23:00,51.4,43.7,29.96,SE,135,2.2,2.4,75,0.00,,,0.00,WUHU216HW,2013-03-27 06:23:00,
2013-03-26 23:28:00,51.0,43.4,29.96,ESE,113,2.0,2.4,75,0.00,,,0.00,WUHU216HW,2013-03-27 06:28:00,
2013-03-26 23:33:00,51.0,43.4,29.96,ESE,113,0.0,3.3,75,0.00,,,0.00,WUHU216HW,2013-03-27 06:33:00,
2013-03-26 23:38:00,50.9,43.2,29.96,SE,135,0.0,3.3,75,0.00,,,0.00,WUHU216HW,2013-03-27 06:38:00,
2013-03-26 23:43:00,50.7,43.0,29.96,SE,135,0.0,3.3,75,0.00,,,0.00,WUHU216HW,2013-03-27 06:43:00,
2013-03-26 23:48:00,50.7,43.0,29.96,SSE,158,0.0,3.3,75,0.00,,,0.00,WUHU216HW,2013-03-27 06:48:00,
2013-03-26 23:53:00,50.7,43.4,29.96,ESE,113,1.1,2.0,76,0.00,,,0.00,WUHU216HW,2013-03-27 06:53:00,
2013-03-26 23:58:00,50.7,43.2,29.96,ESE,113,1.1,2.9,76,0.00,,,0.00,WUHU216HW,2013-03-27 06:58:00,